sat.trackr.live / text

‹ back to catalog

STARLINK-4283

NORAD 53016 · 2022-076AG

PAYLOAD ACTIVE UNKNOWN

§ Identity

Operator
Country
US
Launch date
2022-07-07
Launch site
AFETR
Launch vehicle
Mass (kg)
RCS (m²)

Purposes: comms

External: N2YO · Heavens-Above · Gunter

§ Orbital elements

Epoch: 2026-05-25T03:19:44.264928Z

Period
95.44 min
Inclination
53.2131°
Eccentricity
0.0001218
Mean motion
15.08844826 rev/d
Perigee alt
538.9 km
Apogee alt
540.6 km
Semi-major
6,917.9 km
B*
-1.4085e-5
RAAN
100.9277°
Arg perigee
91.1154°
Mean anomaly
268.9978°
Rev number
21,452

§ Raw data

STARLINK-42831 53016U 22076AG  26145.13870677 -.00000512  00000+0 -14085-4 0  99902 53016  53.2131 100.9277 0001218  91.1154 268.9978 15.08844826214520

JSON: /api/v1/satellites/53016 · /tle

For live sub-satellite position, see the globe view (requires WebGL).

§ Visibility from observer

Set your observer location to see the next 7 days of passes ≥ 10°. The values pass through the URL so the page stays shareable.

No JS? Fill the form by hand. The geolocation button needs JavaScript.